TimePST,TemperatureF,Dew PointF,Humidity,Sea Level PressureIn,VisibilityMPH,Wind Direction,Wind SpeedMPH,Gust SpeedMPH,PrecipitationIn,Events,Conditions,WindDirDegrees,DateUTC
12:56 AM,46.9,45.0,93,30.17,8.0,SSE,18.4,25.3,0.11,Rain,Rain,160,2012-11-12 08:56:00
1:56 AM,48.0,46.0,93,30.16,9.0,SSE,13.8,-,0.13,Rain,Rain,160,2012-11-12 09:56:00
2:56 AM,48.0,46.0,93,30.15,7.0,SSE,16.1,-,0.09,Rain,Rain,160,2012-11-12 10:56:00
3:56 AM,48.0,46.0,93,30.14,10.0,SSE,15.0,-,0.06,Rain,Light Rain,160,2012-11-12 11:56:00
4:56 AM,48.0,46.0,93,30.15,10.0,South,15.0,-,0.05,Rain,Light Rain,170,2012-11-12 12:56:00
5:56 AM,48.0,46.0,93,30.17,7.0,South,10.4,-,0.06,Rain,Light Rain,180,2012-11-12 13:56:00
6:56 AM,48.0,46.0,93,30.17,10.0,SSE,11.5,-,0.03,Rain,Light Rain,160,2012-11-12 14:56:00
7:56 AM,48.0,46.0,93,30.18,10.0,SSE,8.1,16.1,0.01,Rain,Light Rain,150,2012-11-12 15:56:00
8:56 AM,48.9,46.0,90,30.19,4.0,South,16.1,27.6,0.01,Rain,Light Rain,180,2012-11-12 16:56:00
9:56 AM,48.9,46.9,93,30.19,10.0,SSE,10.4,-,0.03,Rain,Light Rain,150,2012-11-12 17:56:00
10:06 AM,48.2,48.2,100,30.19,10.0,SSE,9.2,-,0.00,Rain,Light Rain,160,2012-11-12 18:06:00
10:56 AM,51.1,48.0,89,30.19,10.0,South,16.1,24.2,0.01,Rain,Light Rain,170,2012-11-12 18:56:00
11:44 AM,51.8,48.2,88,30.19,4.0,SSE,13.8,21.9,0.00,Rain,Light Rain,160,2012-11-12 19:44:00
11:56 AM,51.1,48.9,92,30.20,2.5,SSE,11.5,-,0.00,Rain,Light Rain,160,2012-11-12 19:56:00
12:07 PM,51.8,48.2,88,30.19,3.0,SSE,12.7,-,0.00,Rain,Light Rain,160,2012-11-12 20:07:00
12:56 PM,51.1,50.0,96,30.19,6.0,SSE,13.8,-,0.00,Rain,Light Rain,160,2012-11-12 20:56:00
1:56 PM,52.0,50.0,93,30.19,10.0,SSE,11.5,-,0.00,,Overcast,160,2012-11-12 21:56:00
2:56 PM,52.0,50.0,93,30.19,6.0,South,10.4,-,0.00,Rain,Light Rain,180,2012-11-12 22:56:00
3:56 PM,52.0,50.0,93,30.20,8.0,South,6.9,-,0.00,Rain,Light Rain,170,2012-11-12 23:56:00
4:56 PM,52.0,50.0,93,30.20,10.0,South,8.1,-,0.00,,Overcast,190,2012-11-13 00:56:00
5:46 PM,51.8,50.0,94,30.21,10.0,South,4.6,-,N/A,,Overcast,180,2012-11-13 01:46:00
5:56 PM,52.0,50.0,93,30.22,10.0,South,9.2,-,N/A,,Overcast,180,2012-11-13 01:56:00
6:56 PM,51.1,51.1,100,30.22,6.0,South,5.8,-,0.01,Rain,Light Rain,180,2012-11-13 02:56:00
7:22 PM,51.8,50.0,94,30.22,10.0,SSE,4.6,-,0.00,,Overcast,150,2012-11-13 03:22:00
7:56 PM,50.0,48.9,96,30.24,10.0,South,3.5,-,0.00,,Partly Cloudy,170,2012-11-13 03:56:00
8:30 PM,50.0,48.2,94,30.24,10.0,SSE,4.6,-,N/A,,Scattered Clouds,160,2012-11-13 04:30:00
8:56 PM,50.0,48.9,96,30.24,10.0,SSE,4.6,-,N/A,,Partly Cloudy,160,2012-11-13 04:56:00
9:56 PM,50.0,48.9,96,30.25,10.0,South,4.6,-,N/A,,Overcast,190,2012-11-13 05:56:00
10:51 PM,50.0,48.2,94,30.25,10.0,South,4.6,-,N/A,,Overcast,170,2012-11-13 06:51:00
10:56 PM,50.0,48.9,96,30.25,10.0,South,3.5,-,N/A,,Overcast,170,2012-11-13 06:56:00
11:15 PM,48.2,48.2,100,30.25,10.0,SE,5.8,-,N/A,,Overcast,140,2012-11-13 07:15:00
11:56 PM,48.0,48.0,100,30.25,10.0,SE,4.6,-,N/A,,Mostly Cloudy,130,2012-11-13 07:56:00